STARLINK-36886

operational
NORAD ID: 70112 Constellation: starlink
LEOCIRCULAR

STARLINK-36886について

説明を読み込み中...

リアルタイム位置

3D地球を読み込み中...

次回通過

高度履歴

Altitude vs Time

uPlot chart will show altitude changes over time

軌道要素

1 70112C 26050J 26073.73243056 .00571180 00000+0 75003-3 0 734
2 70112 53.1639 257.6158 0011323 268.2601 224.7073 16.05441045 15
Epoch: Mar 14, 2026 • Age: 47 hours

現在のステータス

高度 267.9 km
速度 7.75 km/s
衛星直下点 49.16°N, 152.14°W
打ち上げ日 Mar 14, 2026
運用期間 1 days
タイプ internet

大規模コンステレーション

Loading constellations...